User: anonymous   Login
Location: Aiyekoto
(8.4333°N, 4.3667°E)
Time: 17:45:39
(UTC+00:00)
Language:

Cosmos 2228 Rocket - Orbit

View from above orbital plane
View from above orbital plane
View from above satellite
View from above satellite

Ground track
Ground track

The orbit data is extracted from the following two-line orbital elements,

1 22287U 92094B   20227.87138398  .00000077  00000-0  73498-5 0  9995
2 22287  82.5225  82.2368 0025453 147.5231 212.7554 14.78151632489126
Epoch (UTC): 14 August 2020 20:54:47
Eccentricity: 0.0025453
inclination: 82.5225°
perigee height: 617 km
apogee height: 653 km
right ascension of ascending node: 82.2368°
argument of perigee: 147.5231°
revolutions per day: 14.78151632
mean anomaly at epoch: 212.7554°
orbit number at epoch: 48912

The dashed part of the orbit path shows where the satellite is in the earth's shadow,  

DLR